Showing default

PACE-1, 48909

Orbit data source: Space-Track

PACE-1, 48909 is a payload satellite owned by ARC (US) in SSO that was launched on Wed, 30 Jun 2021 UTC via an FALCON 9 launch vehicle from the Air Force Eastern Test Range (AFETR). Payload-class satellites include a variety of spacecraft equipped with specific instruments for various scientific and technological missions. These include communications satellites like Starlink; space stations such as the ISS; scientific satellites like the Hubble; Earth observation satellites from companies like Planet Labs, Umbra, and HawkEye 360; GPS; miniature CubeSats for education and research; and military/defense satellites.

Loading next visibility...
Identifier
48909, 2021-059AG
Orbit
SSO
Country
Flag of USUS
Related business
Manufacturer
ARC
Mission
Operational Civil Technology
Bus & Motor
CUBESAT 6U, Unknown motor
Mass
10 kg wet, 10 kg dry
Launch date (UTC)
2021-06-30 (4 years ago)
Launch vehicle
FALCON 9
Launch site
Air Force Eastern Test Range (AFETR)
Object type
Payload
Rocket body
Debris
Shape & HBR
Box, 0.1 m
Radar Cross Section
0.080 m², Small (<0.1 m²)

Expand to show TLE details & history
Last TLE update: 12 hours ago

TLE from 12 hours ago
0 PACE-1
1 48909U 21059AG  25308.95186203  .00032472  00000-0  49689-3 0  9996
2 48909  97.6837 121.7117 0004298  60.7502 299.4180 15.54307090242718
Epoch: 2025-11-04T22:50Z
TLE epoch observation values (Epoch: 2025-11-04T22:50:40.879Z)
Latitude
-0.00003°
Longitude
94.60986°
Altitude
405.865 km
Speed
7.668 km/s
True Right ascension
08h 06m 50s
True Declination
0° 00' 00"
Sunlit
Object was in daylight at epoch
Visualization orbit readout
Latitude
Unknown
Longitude
Unknown
Altitude
Unknown
Speed
Unknown
Apparent Right ascension
Unknown
Apparent Declination
Unknown
Sunlit
N/A
Visualization observer readout
Local Sidereal Time
06:45:58
Azimuth
Unknown
Elevation
Unknown
Doppler factor
Unknown
Orbital elements
Apogee altitude
404.014 km
Perigee altitude
398.186 km
Semi-major axis
6,779.237 km
Eccentricity
0.00043
Inclination
97.6837°
RAAN
121.7117°
Arg. of periapsis
60.7502°
True anomaly
299.37509°
Mean anomaly
299.418°
Eccentric anomaly
299.39654°
Mean motion
3.88841 °/min
Orbital period
92.58 mins
BSTAR
0.00049689
Loading maneuver chart data...
Computing Atmospheric mass density...

Documentation

Showing up to 5 results
|